[Date Prev][Date Next][Thread Prev][Thread Next] - [Date Index][Thread Index][Author Index]
2 Line ISS Keps 6-13
- Subject: [sarex] 2 Line ISS Keps 6-13
- From: "Dave Larsen PhD" <doc@xxxxxxxxxxx>
- Date: Sun, 13 Jun 2004 03:54:55 -0700
ISS
1 25544U 98067A 04165.32771409 .00013759 00000-0 12170-3 0 9831
2 25544 51.6325 345.4179 0005423 228.8966 198.8469 15.68957337317710
----
Via the sarex mailing list at AMSAT.ORG courtesy of AMSAT-NA.
To unsubscribe, send "unsubscribe sarex" to Majordomo@amsat.org
AMSAT Home